STARLINK-1417, 45693

Orbit data source: Space-Track

STARLINK-1417, 45693 is a payload satellite owned by SpaceX/Seattle (US) in LEO that was launched on Thu, 04 Jun 2020 UTC via an FALCON 9 launch vehicle from the Air Force Eastern Test Range (AFETR). Payload-class satellites include a variety of spacecraft equipped with specific instruments for various scientific and technological missions. These include communications satellites like Starlink; space stations such as the ISS; scientific satellites like the Hubble; Earth observation satellites from companies like Planet Labs, Umbra, and HawkEye 360; GPS; miniature CubeSats for education and research; and military/defense satellites.

Loading next visibility...
Identifier
45693, 2020-035AN
Orbit
LEO
Country
Flag of USUS
Related business
Manufacturer
SpaceX/Seattle
Mission
Operational Commercial Communications
Bus & Motor
STARLINK, Unknown motor
Mass
260 kg wet, ~248 kg dry
Launch date (UTC)
2020-06-04 (6 years ago)
Launch vehicle
FALCON 9
Launch site
Air Force Eastern Test Range (AFETR)
Object type
Payload
Rocket body
Debris
Shape & HBR
Box + 1 Pan, 10.1 m
Radar Cross Section
13.562 m², Large (>1 m²)

Expand to show TLE details & history
Last TLE update: 2 days ago

TLE from 2 days ago
0 STARLINK-1417
1 45693U 20035AN  25353.18913870  .00010567  00000-0  69737-3 0  9996
2 45693  53.0540  57.8345 0002673   6.4475 353.6549 15.07961246306737
Epoch: 2025-12-19T04:32Z
TLE epoch observation values (Epoch: 2025-12-19T04:32:21.583Z)
Latitude
Longitude
-98.28929°
Altitude
541.472 km
Speed
7.594 km/s
True Right ascension
03h 51m 20s
True Declination
0° 00' 00"
Sunlit
Object was in full shadow at epoch
Visualization orbit readout
Latitude
Unknown
Longitude
Unknown
Altitude
Unknown
Speed
Unknown
Apparent Right ascension
Unknown
Apparent Declination
Unknown
Sunlit
N/A
Visualization observer readout
Local Sidereal Time
18:31:08
Azimuth
Unknown
Elevation
Unknown
Doppler factor
Unknown
Orbital elements
Apogee altitude
544.552 km
Perigee altitude
540.852 km
Semi-major axis
6,920.839 km
Eccentricity
0.00027
Inclination
53.054°
RAAN
57.8345°
Arg. of periapsis
6.4475°
True anomaly
353.65151°
Mean anomaly
353.6549°
Eccentric anomaly
353.65321°
Mean motion
3.76969 °/min
Orbital period
95.5 mins
BSTAR
0.00069737
Loading maneuver chart data...
Computing Atmospheric mass density...

Documentation

Showing up to 5 results
|